Location: Koszewko
(53.2876°N, 14.9061°E)
Time: 01:02:06
(UTC+00:00)

H-2A R/B - Pass Details

Date: 03 March 2021
Orbit: 732 x 837 km, 98.2° (Epoch: 11 April)

Event Time Altitude Azimuth Distance (km) Brightness Sun altitude
Rises 18:02:02 0° 180° (S) 3,372 5.3 -12.7°
Reaches altitude 10° 18:04:28 10° 186° (S) 2,446 4.6 -13.0°
Maximum altitude 18:09:44 50° 261° (W) 1,068 3.2 -13.8°
Drops below altitude 10° 18:15:02 10° 337° (NNW) 2,454 5.0 -14.6°
Sets 18:17:29 0° 343° (NNW) 3,383 5.7 -15.0°
